Location: Newark
(48.8833°N, 0.9236°W)
Time: 00:10:59
(UTC+00:00)

Transit 4A - Pass Details

Date: 01 December 2019
Orbit: 870 x 975 km, 66.8° (Epoch: 09 December)

Event Time Altitude Azimuth Distance (km) Brightness Sun altitude
Exits shadow 05:31:06 16° 226° (SW) 2,146 9.5 -19.7°
Drops below altitude 10° 05:32:47 10° 211° (SSW) 2,511 10.0 -19.4°
Sets 05:35:54 0° 194° (SSW) 3,443 10.9 -18.9°
